This is the latest recevied weather packets stored in our database for station/object KD8UTJ. If no packets are shown the sender has not sent any weather packets the latest 10 day(s).
| Time | Temp. | Humidity | Pressure | Rain* | Wind** | Luminosity | Snow |
|---|---|---|---|---|---|---|---|
| 1777840750 | 23.89° C | 71% | 1018.1 hPa | 0 mm | - | 120 W/m² | - |
| 1777840447 | 23.89° C | 70% | 1018.1 hPa | 0 mm | - | 165 W/m² | - |
| 1777840144 | 23.89° C | 71% | 1018.2 hPa | 0 mm | - | 172 W/m² | - |
| 1777839842 | 23.89° C | 70% | 1018.3 hPa | 0 mm | - | 125 W/m² | - |
| 1777839540 | 23.89° C | 70% | 1018.2 hPa | 0 mm | - | 122 W/m² | - |
| 1777839237 | 23.89° C | 70% | 1018.1 hPa | 0 mm | - | 166 W/m² | - |
| 1777838935 | 23.89° C | 70% | 1018.1 hPa | 0 mm | - | 185 W/m² | - |
| 1777838630 | 24.44° C | 69% | 1018.3 hPa | 0 mm | - | 167 W/m² | - |
| 1777838328 | 24.44° C | 70% | 1018.4 hPa | 0 mm | - | 136 W/m² | - |
| 1777838024 | 24.44° C | 69% | 1018.3 hPa | 0 mm | - | 181 W/m² | - |
| 1777837722 | 25° C | 69% | 1018.5 hPa | 0 mm | - | 302 W/m² | - |
| 1777837417 | 25° C | 68% | 1018.5 hPa | 0 mm | - | 286 W/m² | - |
| 1777837114 | 25.56° C | 67% | 1018.3 hPa | 0 mm | - | 384 W/m² | - |
| 1777836810 | 25° C | 68% | 1018.5 hPa | 0 mm | - | 479 W/m² | - |
| 1777836506 | 25.56° C | 66% | 1018.6 hPa | 0 mm | - | 355 W/m² | - |
| 1777836201 | 25.56° C | 66% | 1018.4 hPa | 0 mm | - | 796 W/m² | - |
| 1777835898 | 25° C | 68% | 1018.7 hPa | 0 mm | - | 838 W/m² | - |
| 1777835595 | 25° C | 69% | 1018.8 hPa | 0 mm | - | 573 W/m² | - |
| 1777835292 | 25° C | 68% | 1018.8 hPa | 0 mm | - | 883 W/m² | - |
| 1777834989 | 24.44° C | 71% | 1018.9 hPa | 0 mm | - | 469 W/m² | - |
| 1777834686 | 23.89° C | 71% | 1019.1 hPa | 0 mm | - | 249 W/m² | - |
| 1777834381 | 23.89° C | 70% | 1019.3 hPa | 0 mm | - | 256 W/m² | - |
| 1777834081 | 24.44° C | 71% | 1019.1 hPa | 0 mm | - | 227 W/m² | - |
| 1777833778 | 24.44° C | 71% | 1019.6 hPa | 0 mm | - | 375 W/m² | - |
| 1777833474 | 24.44° C | 70% | 1019.5 hPa | 0 mm | - | 228 W/m² | - |
* Rain latest hour (hover to see other rain measurements)
** Current wind speed in m/s (hover to see current wind gust speed)